SL-14 DEB, 45289

Orbit data source: Space-Track

SL-14 DEB, 45289 is space debris in LEO originally from a launch on Thu, 15 Aug 1991 UTC launched from the Plesetsk Missile And Space Complex (PKMTR). Debris objects in space refer to the collection of defunct objects orbiting the Earth. Examples of debris include non-operational satellites, rocket bodies, and fragments generated from explosions, collisions, or faulty payload assembly.

Loading next visibility...
SL-14 DEB details
Identifier
45289, 1991-056AB
Orbit
LEO
Last TLE update19 hours ago
Origin
Flag of CISRosgidromet (CIS)
ManufacturerUnknown
MissionSpacecraft
Bus & MotorUnknown
MassUnknown
Launch date (UTC)
1991-08-15 (33 years ago)
Launch vehicleUnknown
Launch site
Plesetsk Missile And Space Complex (PKMTR)
Object type
Payload
Rocket body
Debris
Shape & HBRUnknown
Radar Cross SectionMedium (>0.1 m² and <1 m²)

Expand to show TLE details & history

TLE from 19 hours ago
0 SL-14 DEB
1 45289U 91056AB  25039.84829416  .00000142  00000-0  52405-3 0  9996
2 45289  82.5381 200.7622 0178521 298.0649  60.2502 12.82882832232992
Epoch: 2025-02-08T20:21Z
Definitive object data (Epoch: 2025-02-08T20:21:32.615Z)
Latitude-0.00001°
Longitude116.18602°
Altitude1,266.244 km
Speed7.253 km/s
True Right ascension13h 23m 02s
True Declination0° 00' 00"
Sunlit
Object was in daylight at TLE epoch
Visualization TLE readout
Latitude82.32865°
Longitude-139.72798°
Altitude1,468.51 km
Speed7.077 km/s
Apparent Right ascension05h 17m 51s
Apparent Declination41° 54' 56"
Sunlit
Object is in daylight
Visualization observer readout
Local Sidereal Time17:52:58
Azimuth6.582° NNE
Elevation-7.782°
Doppler factor1
Orbital elements
Apogee altitude1,464.749 km
Perigee altitude1,189.636 km
Semi-major axis7,705.33 km
Eccentricity0.0178521
Inclination82.5381°
RAAN200.7622°
Arg. of periapsis298.0649°
True anomaly62.04586°
Mean anomaly60.2502°
Eccentric anomaly61.14607°
Mean motion3.2089 °/min
BSTAR0.00052405
Orbital period112.19 mins
Loading maneuver chart data...
Loading historical data...
Loading historical data...
Loading historical data...
Loading historical data...
Loading historical data...
Loading historical data...
Loading historical data...

SL-14 DEB Visibility forecast

Observer location: undefined°, undefined

Span
Click to sort rows by Start time (UTC) header in descending order
Start Az.
Max El. time (UTC)
Max El. Az.
Max El.
End time (UTC)
End Az.
14 mins2025-02-09 21:17:31.697Z8.996° NNE2025-02-09 21:24:31.697Z66.285° ENE30.218°2025-02-09 21:31:31.697Z131.653° SE
14 mins2025-02-09 23:11:31.697Z338.714° N2025-02-09 23:18:31.697Z265.953° W37.445°2025-02-09 23:25:31.697Z201.279° SSW
11 mins2025-02-10 09:55:31.697Z127.003° SE2025-02-10 10:00:31.697Z78.664° E24.739°2025-02-10 10:06:31.697Z30.319° NE
14 mins2025-02-10 11:46:31.697Z206.906° SW2025-02-10 11:52:31.697Z275.581° WNW40.492°2025-02-10 12:00:31.697Z359.974° N
|